Location: Zagreb
(45.8000°N, 16.0000°E)
Time: 16:08:20
(UTC+01:00)

Tiros 1 despin weight - Pass Details

Date: 30 November 2023
Orbit: 581 x 624 km, 48.2° (Epoch: 02 March)

Event Time Altitude Azimuth Distance (km) Brightness Sun altitude
Rises 19:02:48 0° 210° (SSW) 2,788 ? -28.8°
Reaches altitude 10° 19:05:21 10° 197° (SSW) 1,888 ? -29.2°
Enters shadow 19:05:27 11° 196° (SSW) 1,857 ? -29.2°
